Latest Coastal Weather Observations for Cape Borda

IDT60701

Issued at 6:25 pm EST Wednesday 1 October 2014 (issued every 10 minutes, with the page automatically refreshed every 10 minutes)

About coastal observations | Map of coastal stations | Coastal observations for TAS | Marine services | Other Formats
Station Details ID: 022823 Name: CAPE BORDA Lat: -35.75 Lon: 136.60 Height: 158.0 m
Data from the previous 72 hours. | See also: Recent months at Cape Borda
Date/Time
EST
Temp

°C
Wind Pressure Rain
since 9am
mm
Weather Cloud Vis
km
Sea
Height
m
Swell
Dir
 
Speed
knots
Gust
knots
hPa Trend Height
m
Period
s
Dir
01/06:00pm 13.1 SW 9 13 1027.8 - 0.0 - - - - - - -
01/05:30pm 13.5 SW 10 13 1027.7 - 0.0 - - - - - - -
01/05:00pm 14.0 SW 10 15 1027.6 - 0.0 - - - - - - -
01/04:30pm 14.1 WSW 12 16 1027.6 - 0.0 - - - - - - -
01/04:00pm 14.4 WSW 12 16 1027.8 - 0.0 - - - - - - -
01/03:30pm 14.8 WSW 14 18 1027.7 F 0.0 Fine Mostly clear 18 1 6.5 10 SW
01/03:00pm 14.9 SW 14 19 1027.8 - 0.0 - - - - - - -
01/02:30pm 14.8 SW 14 17 1028.0 - 0.0 - - - - - - -
01/02:00pm 14.8 WSW 14 19 1028.0 - 0.0 - - - - - - -
01/01:30pm 14.7 WSW 13 18 1028.3 - 0.0 - - - - - - -
01/01:00pm 15.0 WSW 13 18 1028.6 - 0.0 - - - - - - -
01/12:30pm 15.2 WSW 12 16 1028.8 - 0.0 - - - - - - -
01/12:00pm 14.7 SW 12 17 1028.9 - 0.0 - - - - - - -
01/11:30am 14.2 SW 11 16 1028.9 - 0.0 - - - - - - -
01/11:00am 15.3 S 9 13 1028.9 - 0.0 - - - - - - -
01/10:30am 13.9 SSW 9 14 1028.9 - 0.0 - - - - - - -
01/10:00am 13.5 SW 11 16 1028.6 - 0.0 - - - - - - -
01/09:30am 13.9 SW 7 9 1028.3 R 0.0 Fine Partly cloudy 18 <0.5 6.2 10 SW
01/09:00am 13.3 S 12 16 1027.8 - 0.0 - - - - - - -
01/08:30am 12.6 S 8 11 1027.3 - 0.0 - - - - - - -
01/08:00am 11.3 S 7 10 1027.2 - 0.0 - - - - - - -
01/07:30am 10.1 S 6 9 1027.0 - 0.0 - - - - - - -
01/07:00am 9.3 S 8 9 1026.6 - 0.0 - - - - - - -
01/06:30am 10.1 SSW 9 14 1026.1 - 0.0 - - - - - - -
01/06:00am 9.7 SSW 9 12 1025.7 - 0.0 - - - - - - -
01/05:30am 9.5 SSW 9 12 1025.3 - 0.0 - - - - - - -
01/05:00am 9.8 S 9 13 1024.8 - 0.0 - - - - - - -
01/04:30am 9.6 S 9 11 1024.5 - 0.0 - - - - - - -
01/04:00am 10.0 SSW 11 15 1024.3 - 0.0 - - - - - - -
01/03:30am 10.3 SSW 13 17 1024.1 - 0.0 - - - - - - -
01/03:00am 10.5 SSW 13 20 1023.9 - 0.0 - - - - - - -
01/02:30am 10.5 SSW 11 18 1023.8 - 0.0 - - - - - - -
01/02:00am 11.0 SSW 14 19 1023.7 - 0.0 - - - - - - -
01/01:30am 11.4 SSW 15 21 1023.6 - 0.0 - - - - - - -
01/01:00am 11.4 SSW 13 18 1023.5 - 0.0 - - - - - - -
01/12:30am 11.1 SW 13 17 1023.5 - 0.0 - - - - - - -
01/12:00am 11.0 SW 13 17 1023.2 - 0.0 - - - - - - -
 
Date/Time
EST
Temp

°C
Wind Pressure Rain
since 9am
mm
Weather Cloud Vis
km
Sea
Height
m
Swell
Dir
 
Speed
knots
Gust
knots
hPa Trend Height
m
Period
s
Dir
30/11:30pm 11.5 SW 14 19 1023.0 - 0.0 - - - - - - -
30/11:00pm 11.4 SSW 15 22 1022.6 - 0.0 - - - - - - -
30/10:30pm 11.4 SW 14 22 1022.4 - 0.0 - - - - - - -
30/10:00pm 11.4 SW 16 22 1022.2 - 0.0 - - - - - - -
30/09:30pm 11.4 SW 16 23 1021.9 - 0.0 - - - - - - -
30/09:01pm 11.6 SW 17 27 1021.4 - 0.0 - - - - - - -
30/09:00pm 11.6 SW 16 24 1021.4 - 0.0 - - - - - - -
30/08:30pm 12.0 SW 18 27 1021.1 - 0.0 - - - - - - -
30/08:23pm 12.2 SW 16 27 1020.9 - 0.0 - - - - - - -
30/08:00pm 11.9 SW 18 25 1020.4 - 0.0 - - - - - - -
30/07:31pm 11.9 SW 17 29 1019.8 - 0.0 - - - - - - -
30/07:30pm 12.0 SW 17 25 1019.7 - 0.0 - - - - - - -
30/07:00pm 12.1 SW 18 26 1019.2 - 0.0 - - - - - - -
30/06:32pm 12.4 SW 21 31 1018.8 - 0.0 - - - - - - -
30/06:30pm 12.5 SW 22 31 1018.8 - 0.0 - - - - - - -
30/06:00pm 13.1 SW 21 31 1018.2 - 0.0 - - - - - - -
30/05:30pm 13.8 WSW 20 31 1017.8 - 0.0 - - - - - - -
30/05:00pm 14.0 WSW 20 30 1017.3 - 0.0 - - - - - - -
30/04:30pm 13.8 WSW 21 31 1017.1 - 0.0 - - - - - - -
30/04:17pm 14.8 WSW 19 29 1016.8 - 0.0 - - - - - - -
30/04:00pm 15.1 WSW 22 29 1016.7 - 0.0 - - - - - - -
30/03:30pm 14.3 WSW 19 29 1016.7 R 0.0 Distant precip. Mostly cloudy 10 3 7.9 8 SW
30/03:25pm 14.3 WSW 19 29 1016.5 - 0.0 - - - - - - -
30/03:00pm 16.1 WSW 20 28 1016.2 - 0.0 - - - - - - -
30/02:38pm 15.6 WSW 21 31 1016.0 - 0.0 - - - - - - -
30/02:30pm 15.6 WSW 21 27 1015.9 - 0.0 - - - - - - -
30/02:02pm 16.2 WSW 19 29 1015.6 - 0.0 - - - - - - -
30/02:00pm 15.8 WSW 20 29 1015.6 - 0.0 - - - - - - -
30/01:34pm 15.8 WSW 19 30 1015.5 - 0.0 - - - - - - -
30/01:30pm 16.3 WSW 19 27 1015.5 - 0.0 - - - - - - -
30/01:07pm 15.8 WSW 19 29 1015.3 - 0.0 - - - - - - -
30/01:00pm 15.5 WSW 21 29 1015.2 - 0.0 - - - - - - -
30/12:30pm 15.1 WSW 21 30 1014.8 - 0.0 - - - - - - -
30/12:03pm 14.4 WSW 21 31 1014.5 - 0.0 - - - - - - -
30/12:00pm 14.2 W 22 31 1014.4 - 0.0 - - - - - - -
30/11:30am 13.9 WSW 20 30 1013.9 - 0.0 - - - - - - -
30/11:00am 13.2 WSW 21 31 1013.6 - 0.0 - - - - - - -
30/10:42am 15.1 W 22 33 1013.3 - 0.0 - - - - - - -
30/10:30am 15.9 W 25 31 1013.3 - 0.0 - - - - - - -
30/10:06am 15.1 W 21 34 1013.0 - 0.0 - - - - - - -
30/10:00am 14.9 W 22 30 1012.9 - 0.0 - - - - - - -
30/09:30am 14.6 W 21 32 1012.6 R 0.0 Fine Mostly cloudy 15 3 6.4 9 SW
30/09:29am 14.6 W 21 32 1012.4 - 0.0 - - - - - - -
30/09:00am 14.5 W 20 28 1012.0 - 0.0 - - - - - - -
30/08:30am 14.8 WNW 21 31 1011.5 - 0.0 - - - - - - -
30/08:00am 14.4 W 20 27 1011.4 - 0.0 - - - - - - -
30/07:30am 14.1 WNW 19 26 1011.1 - 0.0 - - - - - - -
30/07:16am 14.1 WNW 19 29 1011.1 - 0.0 - - - - - - -
30/07:00am 14.4 W 20 28 1011.1 - 0.0 - - - - - - -
30/06:38am 14.3 W 19 31 1010.8 - 0.0 - - - - - - -
30/06:30am 14.6 W 21 30 1010.5 R 0.0 Distant precip. Mostly cloudy 15 1 7.7 10 SW
30/06:21am 14.4 WNW 18 30 1010.5 - 0.0 - - - - - - -
30/06:00am 14.3 WNW 18 26 1010.1 - 0.0 - - - - - - -
30/05:30am 14.4 NW 16 21 1009.8 - 0.0 - - - - - - -
30/05:00am 14.4 NW 17 23 1009.8 - 0.0 - - - - - - -
30/04:30am 14.3 NW 17 24 1009.7 - 0.0 - - - - - - -
30/04:00am 13.8 NNW 14 21 1009.7 - 0.0 - - - - - - -
30/03:30am 13.5 NNW 12 15 1009.9 - 0.0 - - - - - - -
30/03:00am 13.6 NNW 11 15 1009.7 - 0.0 - - - - - - -
30/02:30am 13.8 NNW 11 14 1010.5 - 0.0 - - - - - - -
30/02:00am 13.9 NNW 11 16 1010.8 - 0.0 - - - - - - -
30/01:30am 13.9 NNW 12 17 1010.9 - 0.0 - - - - - - -
30/01:00am 14.2 NNW 12 16 1011.2 - 0.0 - - - - - - -
30/12:30am 14.5 NW 13 19 1011.9 - 0.0 - - - - - - -
30/12:00am 14.5 NW 14 21 1012.4 - 0.0 - - - - - - -
 
Date/Time
EST
Temp

°C
Wind Pressure Rain
since 9am
mm
Weather Cloud Vis
km
Sea
Height
m
Swell
Dir
 
Speed
knots
Gust
knots
hPa Trend Height
m
Period
s
Dir
29/11:30pm 14.4 NW 15 21 1012.9 - 0.0 - - - - - - -
29/11:00pm 14.3 NW 15 21 1013.2 - 0.0 - - - - - - -
29/10:30pm 14.3 NW 13 17 1013.5 - 0.0 - - - - - - -
29/10:00pm 14.4 NW 15 22 1013.7 - 0.0 - - - - - - -
29/09:30pm 14.4 NW 14 20 1013.8 - 0.0 - - - - - - -
29/09:00pm 14.2 NW 15 21 1013.7 - 0.0 - - - - - - -
29/08:30pm 14.1 NW 15 22 1013.4 - 0.0 - - - - - - -
29/08:00pm 14.1 NW 13 19 1013.1 - 0.0 - - - - - - -
29/07:30pm 14.1 NW 15 21 1012.9 - 0.0 - - - - - - -
29/07:00pm 14.0 NW 13 19 1012.7 - 0.0 - - - - - - -
29/06:30pm 14.4 NW 13 21 1012.8 - 0.0 - - - - - - -
29/06:00pm 15.1 NW 14 19 1012.8 - 0.0 - - - - - - -
29/05:30pm 15.2 NW 13 19 1012.5 - 0.0 - - - - - - -
29/05:00pm 15.0 NW 13 19 1012.5 - 0.0 - - - - - - -
29/04:30pm 16.2 WNW 13 19 1012.5 - 0.0 - - - - - - -
29/04:00pm 16.4 NW 12 16 1012.3 - 0.0 - - - - - - -
29/03:30pm 16.5 WNW 13 17 1012.7 F 0.0 Fine Mostly clear 15 1 6.5 10 SW
29/03:00pm 16.5 WNW 13 18 1012.8 - 0.0 - - - - - - -
29/02:30pm 17.0 WNW 13 17 1013.0 - 0.0 - - - - - - -
29/02:00pm 16.6 NW 13 17 1013.2 - 0.0 - - - - - - -
29/01:30pm 17.0 NW 13 17 1013.5 - 0.0 - - - - - - -
29/01:00pm 16.2 NW 12 15 1013.8 - 0.0 - - - - - - -
29/12:30pm 16.1 NW 13 18 1014.3 - 0.0 - - - - - - -
29/12:00pm 16.2 NW 11 14 1014.4 - 0.0 - - - - - - -
29/11:30am 15.4 NW 8 12 1014.5 - 0.0 - - - - - - -
29/11:00am 15.5 WNW 9 12 1014.5 - 0.0 - - - - - - -
29/10:30am 15.1 WNW 11 16 1014.8 - 0.0 - - - - - - -
29/10:00am 15.0 WNW 11 15 1014.7 - 0.0 - - - - - - -
29/09:30am 14.5 W 11 15 1014.7 R 0.0 Fine Mostly cloudy 15 1 6.1 9 SW
29/09:00am 14.2 W 11 17 1014.4 - 0.0 - - - - - - -
29/08:30am 14.2 W 10 15 1013.9 - 0.0 - - - - - - -
29/08:00am 13.5 W 9 12 1013.6 - 0.0 - - - - - - -
29/07:30am 13.0 W 10 14 1013.4 - 0.0 - - - - - - -
29/07:00am 12.4 W 10 14 1013.4 - 0.0 - - - - - - -
29/06:30am 12.5 W 12 17 1013.3 F 0.0 Haze Mostly clear 1 <0.5 6.5 8 SW
29/06:00am 12.7 W 12 16 1012.8 - 0.0 - - - - - - -
29/05:30am 12.6 W 12 18 1012.8 - 0.0 - - - - - - -
29/05:00am 13.0 W 13 19 1012.6 - 0.0 - - - - - - -
29/04:30am 13.0 W 14 19 1012.6 - 0.0 - - - - - - -
29/04:00am 13.1 W 16 22 1012.8 - 0.0 - - - - - - -
29/03:30am 13.4 W 16 24 1013.1 - 0.0 - - - - - - -
29/03:00am 13.3 W 15 21 1013.1 - 0.0 - - - - - - -
29/02:30am 13.6 W 17 25 1013.1 - 0.0 - - - - - - -
29/02:00am 13.8 WNW 18 24 1013.1 - 0.0 - - - - - - -
29/01:30am 14.0 WNW 17 22 1013.1 - 0.0 - - - - - - -
29/01:00am 14.2 WNW 18 24 1012.9 - 0.0 - - - - - - -
29/12:30am 14.3 WNW 18 25 1012.8 - 0.0 - - - - - - -
29/12:01am 14.4 W 20 30 1012.8 - 0.0 - - - - - - -
29/12:00am 14.5 W 21 30 1012.8 - 0.0 - - - - - - -
 
Date/Time
EST
Temp

°C
Wind Pressure Rain
since 9am
mm
Weather Cloud Vis
km
Sea
Height
m
Swell
Dir
 
Speed
knots
Gust
knots
hPa Trend Height
m
Period
s
Dir
28/11:53pm 14.3 WNW 20 30 1012.8 - 0.0 - - - - - - -
28/11:30pm 14.2 WNW 17 23 1013.0 - 0.0 - - - - - - -
28/11:03pm 14.2 W 19 29 1013.2 - 0.0 - - - - - - -
28/11:00pm 14.2 WNW 18 25 1013.2 - 0.0 - - - - - - -
28/10:30pm 14.3 WNW 19 26 1012.9 - 0.0 - - - - - - -
28/10:00pm 14.2 WNW 20 28 1012.8 - 0.0 - - - - - - -
28/09:45pm 14.3 WNW 18 28 1012.8 - 0.0 - - - - - - -
28/09:30pm 14.2 WNW 18 25 1012.9 - 0.0 - - - - - - -
28/09:00pm 14.4 WNW 17 25 1012.5 - 0.0 - - - - - - -
28/08:36pm 14.3 WNW 18 28 1012.0 - 0.0 - - - - - - -
28/08:30pm 14.5 WNW 20 28 1011.9 - 0.0 - - - - - - -
28/08:00pm 14.4 WNW 20 27 1011.5 - 0.0 - - - - - - -
28/07:30pm 14.6 WNW 20 27 1011.0 - 0.0 - - - - - - -
28/07:00pm 14.2 WNW 20 29 1010.6 - 0.0 - - - - - - -

Other Formats:

Comma delimited format used in spreadsheet applications
http://www.bom.gov.au/fwo/IDT60701/IDT60701.95805.axf

JavaScript Object Notation format (JSON) in row-major order
http://www.bom.gov.au/fwo/IDT60701/IDT60701.95805.json